Location: downtown San Diego
(32.7310°N, 117.1990°W)
Time: 18:36:49
(UTC-07:00)

Cosmos 1386 Rocket - Pass Details

Date: 12 July 2018
Orbit: 931 x 1005 km, 83.0° (Epoch: 23 September)

Event Time Altitude Azimuth Distance (km) Brightness Sun altitude
Rises 20:14:35 0° 355° (N) 3,588 8.0 -3.8°
Reaches altitude 10° 20:17:04 10° 356° (N) 2,642 7.3 -4.2°
Maximum altitude 20:23:06 82° 85° (E) 950 4.5 -5.3°
Drops below altitude 10° 20:29:10 10° 172° (S) 2,657 6.4 -6.4°
Sets 20:31:39 0° 173° (S) 3,608 7.1 -6.9°
